Location: ????????
(55.3155°N, 39.2900°E)
Time: 18:08:43
(UTC+00:00)

ACS3 Solar Sail - Pass Details

Date: 20 November 2025
Orbit: 889 x 1003 km, 97.3° (Epoch: 06 December)

Event Time Altitude Azimuth Distance (km) Brightness Sun altitude
Rises 22:46:59 0° 23° (NNE) 3,588 5.4 -50.0°
Reaches altitude 10° 22:50:53 10° 49° (NE) 2,666 4.6 -49.7°
Enters shadow 22:51:01 10° 50° (NE) 2,644 4.5 -49.7°
